TimeMST,TemperatureF,Dew PointF,Humidity,Sea Level PressureIn,VisibilityMPH,Wind Direction,Wind SpeedMPH,Gust SpeedMPH,PrecipitationIn,Events,Conditions,WindDirDegrees,DateUTC
12:55 AM,28.0,14.0,56,29.98,10.0,NW,10.4,-,N/A,,Clear,320,2013-03-09 07:55:00
1:55 AM,27.0,15.1,61,29.99,10.0,NW,6.9,-,N/A,,Clear,320,2013-03-09 08:55:00
2:55 AM,25.0,14.0,63,30.01,10.0,Calm,Calm,-,N/A,,Clear,0,2013-03-09 09:55:00
3:55 AM,25.0,14.0,63,30.02,10.0,Calm,Calm,-,N/A,,Clear,0,2013-03-09 10:55:00
4:55 AM,23.0,15.1,72,30.05,10.0,Calm,Calm,-,N/A,,Clear,0,2013-03-09 11:55:00
5:55 AM,21.0,12.9,71,30.10,10.0,Calm,Calm,-,N/A,,Clear,0,2013-03-09 12:55:00
6:55 AM,19.0,12.9,77,30.16,10.0,Calm,Calm,-,N/A,,Clear,0,2013-03-09 13:55:00
7:55 AM,21.0,14.0,74,30.19,10.0,Calm,Calm,-,N/A,,Clear,0,2013-03-09 14:55:00
8:55 AM,26.1,16.0,66,30.19,10.0,Calm,Calm,-,N/A,,Clear,0,2013-03-09 15:55:00
9:55 AM,33.1,14.0,46,30.17,10.0,Calm,Calm,-,N/A,,Clear,0,2013-03-09 16:55:00
10:55 AM,36.0,14.0,41,30.17,10.0,NNE,5.8,-,N/A,,Clear,30,2013-03-09 17:55:00
11:55 AM,37.9,15.1,39,30.18,10.0,NNE,10.4,18.4,N/A,,Clear,30,2013-03-09 18:55:00
12:55 PM,39.9,16.0,38,30.18,10.0,NE,10.4,19.6,N/A,,Clear,50,2013-03-09 19:55:00
1:55 PM,42.1,15.1,34,30.17,10.0,NNE,9.2,-,N/A,,Clear,20,2013-03-09 20:55:00
2:55 PM,44.1,15.1,31,30.17,10.0,NNE,8.1,-,N/A,,Clear,30,2013-03-09 21:55:00
3:55 PM,45.0,12.0,26,30.19,10.0,NE,3.5,-,N/A,,Clear,40,2013-03-09 22:55:00
4:55 PM,45.0,14.0,29,30.21,10.0,Calm,Calm,-,N/A,,Clear,0,2013-03-09 23:55:00
5:55 PM,43.0,15.1,32,30.24,10.0,NE,4.6,-,N/A,,Clear,40,2013-03-10 00:55:00
6:55 PM,36.0,17.1,46,30.30,10.0,North,9.2,-,N/A,,Clear,350,2013-03-10 01:55:00
7:55 PM,34.0,16.0,48,30.33,10.0,North,4.6,-,N/A,,Clear,350,2013-03-10 02:55:00
8:55 PM,33.1,17.1,52,30.35,10.0,NW,6.9,-,N/A,,Clear,320,2013-03-10 03:55:00
9:55 PM,28.9,18.0,64,30.37,10.0,Calm,Calm,-,N/A,,Clear,0,2013-03-10 04:55:00
10:55 PM,28.0,16.0,61,30.36,10.0,SE,4.6,-,N/A,,Clear,140,2013-03-10 05:55:00
11:55 PM,25.0,15.1,66,30.37,10.0,Calm,Calm,-,N/A,,Clear,0,2013-03-10 06:55:00